sat.trackr.live / text

‹ back to catalog

ONEWEB-0271

NORAD 48989 · 2021-060Y

PAYLOAD ACTIVE UNKNOWN

§ Identity

Operator
Country
UK
Launch date
2021-07-01
Launch site
VOSTO
Launch vehicle
Mass (kg)
RCS (m²)

Purposes: comms

External: N2YO · Heavens-Above · Gunter

§ Orbital elements

Epoch: 2026-09-20T04:00:33.680736Z

Period
109.37 min
Inclination
87.9154°
Eccentricity
0.0002020
Mean motion
13.16594009 rev/d
Perigee alt
1,196.2 km
Apogee alt
1,199.3 km
Semi-major
7,575.9 km
B*
1.2679e-4
RAAN
209.9151°
Arg perigee
70.8548°
Mean anomaly
289.2801°
Rev number
25,216

§ Raw data

ONEWEB-02711 48989U 21060Y   26263.16705649  .00000061  00000+0  12679-3 0  99982 48989  87.9154 209.9151 0002020  70.8548 289.2801 13.16594009252161

JSON: /api/v1/satellites/48989 · /tle

For live sub-satellite position, see the globe view (requires WebGL).

§ Visibility from observer

Set your observer location to see the next 7 days of passes ≥ 10°. The values pass through the URL so the page stays shareable.

No JS? Fill the form by hand. The geolocation button needs JavaScript.